Time,TemperatureF,DewpointF,PressureIn,WindDirection,WindDirectionDegrees,WindSpeedMPH,WindSpeedGustMPH,Humidity,HourlyPrecipIn,Conditions,Clouds,dailyrainin,SoftwareType,DateUTC
2014-07-23 00:01:00,78.1,74.3,30.06,NE,46,0.0,0.0,88,0.00,,---,0.00,VWS V14.01,2014-07-23 04:01:00,
2014-07-23 00:06:00,78.0,74.5,30.06,NE,46,0.0,0.0,89,0.00,,---,0.00,VWS V14.01,2014-07-23 04:06:00,
2014-07-23 00:11:00,78.0,74.5,30.06,NE,46,0.0,0.0,89,0.00,,---,0.00,VWS V14.01,2014-07-23 04:11:00,
2014-07-23 00:16:00,78.0,74.5,30.05,NE,46,0.0,0.0,89,0.00,,---,0.00,VWS V14.01,2014-07-23 04:16:00,
2014-07-23 00:21:00,77.9,74.4,30.05,NE,46,0.0,0.0,89,0.00,,---,0.00,VWS V14.01,2014-07-23 04:21:00,
2014-07-23 00:26:00,77.9,74.7,30.05,NE,46,0.0,0.0,90,0.00,,---,0.00,VWS V14.01,2014-07-23 04:26:00,
2014-07-23 00:31:00,78.1,74.9,30.05,NE,46,0.0,0.0,90,0.00,,---,0.00,VWS V14.01,2014-07-23 04:31:00,
2014-07-23 00:36:00,78.2,75.0,30.06,NE,46,0.0,0.0,90,0.00,,---,0.00,VWS V14.01,2014-07-23 04:36:00,
2014-07-23 00:42:00,78.2,75.4,30.06,NE,46,0.0,0.0,91,0.00,,---,0.00,VWS V14.01,2014-07-23 04:42:00,
2014-07-23 00:47:00,78.1,75.3,30.06,NE,46,0.0,0.0,91,0.00,,---,0.00,VWS V14.01,2014-07-23 04:47:00,
2014-07-23 00:52:00,78.0,75.2,30.06,NE,46,0.0,0.0,91,0.00,,---,0.00,VWS V14.01,2014-07-23 04:52:00,
2014-07-23 00:57:00,78.0,75.2,30.05,NE,46,0.0,0.0,91,0.00,,---,0.00,VWS V14.01,2014-07-23 04:57:00,
2014-07-23 01:02:00,78.0,75.5,30.05,NE,46,0.0,0.0,92,0.00,,---,0.00,VWS V14.01,2014-07-23 05:02:00,
2014-07-23 01:07:00,77.9,75.4,30.05,NE,46,0.0,0.0,92,0.00,,---,0.00,VWS V14.01,2014-07-23 05:07:00,
2014-07-23 01:11:00,77.7,75.2,30.05,NE,46,0.0,0.0,92,0.00,,---,0.00,VWS V14.01,2014-07-23 05:11:00,
2014-07-23 01:17:00,77.7,75.2,30.05,NE,46,0.0,0.0,92,0.00,,---,0.00,VWS V14.01,2014-07-23 05:17:00,
2014-07-23 01:22:00,77.6,75.4,30.05,NE,46,0.0,0.0,93,0.00,,---,0.00,VWS V14.01,2014-07-23 05:22:00,
2014-07-23 01:27:00,77.5,75.3,30.04,NE,46,0.0,0.0,93,0.00,,---,0.00,VWS V14.01,2014-07-23 05:27:00,
2014-07-23 01:32:00,77.4,75.2,30.05,NE,46,0.0,0.0,93,0.00,,---,0.00,VWS V14.01,2014-07-23 05:32:00,
2014-07-23 01:37:00,77.5,75.6,30.04,NE,46,0.0,0.0,94,0.00,,---,0.00,VWS V14.01,2014-07-23 05:37:00,
2014-07-23 01:42:00,77.4,75.5,30.05,NE,46,0.0,0.0,94,0.00,,---,0.00,VWS V14.01,2014-07-23 05:42:00,
2014-07-23 01:47:00,77.3,75.4,30.05,NE,46,0.0,0.0,94,0.00,,---,0.00,VWS V14.01,2014-07-23 05:47:00,
2014-07-23 01:52:00,77.2,75.3,30.05,NE,46,0.0,0.0,94,0.00,,---,0.00,VWS V14.01,2014-07-23 05:52:00,
2014-07-23 01:57:00,77.2,75.3,30.05,NE,46,0.0,0.0,94,0.00,,---,0.00,VWS V14.01,2014-07-23 05:57:00,
2014-07-23 02:03:00,77.3,75.4,30.04,NE,46,0.0,0.0,94,0.00,,---,0.00,VWS V14.01,2014-07-23 06:03:00,
2014-07-23 02:08:00,77.2,75.7,30.04,NE,46,0.0,0.0,95,0.00,,---,0.00,VWS V14.01,2014-07-23 06:08:00,
2014-07-23 02:13:00,77.3,75.8,30.04,NE,46,0.0,0.0,95,0.00,,---,0.00,VWS V14.01,2014-07-23 06:13:00,
2014-07-23 02:18:00,77.5,76.0,30.04,NE,46,0.0,0.0,95,0.00,,---,0.00,VWS V14.01,2014-07-23 06:18:00,
2014-07-23 02:23:00,77.5,76.0,30.04,NE,46,0.0,0.0,95,0.00,,---,0.00,VWS V14.01,2014-07-23 06:23:00,
2014-07-23 02:28:00,77.4,75.9,30.04,NE,46,0.0,0.0,95,0.00,,---,0.00,VWS V14.01,2014-07-23 06:28:00,
2014-07-23 02:33:00,77.5,76.3,30.04,NE,45,0.0,0.0,96,0.00,,---,0.00,VWS V14.01,2014-07-23 06:33:00,
2014-07-23 02:38:00,77.6,76.4,30.03,NE,46,0.0,0.0,96,0.00,,---,0.00,VWS V14.01,2014-07-23 06:38:00,
2014-07-23 02:43:00,77.7,76.2,30.03,NE,46,0.0,0.0,95,0.00,,---,0.00,VWS V14.01,2014-07-23 06:43:00,
2014-07-23 02:48:00,77.6,76.1,30.03,NE,46,0.0,0.0,95,0.00,,---,0.00,VWS V14.01,2014-07-23 06:48:00,
2014-07-23 02:53:00,77.5,76.0,30.03,NE,46,0.0,0.0,95,0.00,,---,0.00,VWS V14.01,2014-07-23 06:53:00,
2014-07-23 02:58:00,77.5,76.0,30.03,NE,46,0.0,0.0,95,0.00,,---,0.00,VWS V14.01,2014-07-23 06:58:00,
2014-07-23 03:03:00,77.4,76.2,30.03,NE,46,0.0,0.0,96,0.00,,---,0.00,VWS V14.01,2014-07-23 07:03:00,
2014-07-23 03:08:00,77.3,76.1,30.03,NE,46,0.0,0.0,96,0.00,,---,0.00,VWS V14.01,2014-07-23 07:08:00,
2014-07-23 03:13:00,77.3,76.1,30.03,NE,46,0.0,0.0,96,0.00,,---,0.00,VWS V14.01,2014-07-23 07:13:00,
2014-07-23 03:18:00,77.1,75.9,30.03,NE,46,0.0,0.0,96,0.00,,---,0.00,VWS V14.01,2014-07-23 07:18:00,
2014-07-23 03:23:00,77.1,75.9,30.02,NE,46,0.0,0.0,96,0.00,,---,0.00,VWS V14.01,2014-07-23 07:23:00,
2014-07-23 03:28:00,77.0,75.8,30.02,NE,46,0.0,0.0,96,0.00,,---,0.00,VWS V14.01,2014-07-23 07:28:00,
2014-07-23 03:34:00,77.1,75.9,30.02,NE,46,0.0,0.0,96,0.00,,---,0.00,VWS V14.01,2014-07-23 07:34:00,
2014-07-23 03:39:00,77.0,75.8,30.02,NE,46,0.0,0.0,96,0.00,,---,0.00,VWS V14.01,2014-07-23 07:39:00,
2014-07-23 03:44:00,76.8,75.6,30.02,NE,46,0.0,0.0,96,0.00,,---,0.00,VWS V14.01,2014-07-23 07:44:00,
2014-07-23 03:49:00,76.8,75.6,30.02,NE,46,0.0,0.0,96,0.00,,---,0.00,VWS V14.01,2014-07-23 07:49:00,
2014-07-23 03:54:00,76.7,75.8,30.02,NE,46,0.0,0.0,97,0.00,,---,0.00,VWS V14.01,2014-07-23 07:54:00,
2014-07-23 03:59:00,76.7,75.8,30.02,NE,46,0.0,0.0,97,0.00,,---,0.00,VWS V14.01,2014-07-23 07:59:00,
2014-07-23 04:00:00,76.6,75.7,30.02,NE,46,0.0,0.0,97,0.00,,---,0.00,VWS V14.01,2014-07-23 08:00:00,
2014-07-23 04:04:00,76.5,75.6,30.02,NE,46,0.0,0.0,97,0.00,,---,0.00,VWS V14.01,2014-07-23 08:04:00,
2014-07-23 04:09:00,76.5,75.6,30.02,NE,46,0.0,0.0,97,0.00,,---,0.00,VWS V14.01,2014-07-23 08:09:00,
2014-07-23 04:14:00,76.4,75.5,30.02,NE,46,0.0,0.0,97,0.00,,---,0.00,VWS V14.01,2014-07-23 08:14:00,
2014-07-23 04:19:00,76.3,75.4,30.02,NE,46,0.0,0.0,97,0.00,,---,0.00,VWS V14.01,2014-07-23 08:19:00,
2014-07-23 04:24:00,76.4,75.5,30.01,NE,46,0.0,0.0,97,0.00,,---,0.00,VWS V14.01,2014-07-23 08:24:00,
2014-07-23 04:29:00,76.4,75.5,30.02,NE,46,0.0,0.0,97,0.00,,---,0.00,VWS V14.01,2014-07-23 08:29:00,
2014-07-23 04:34:00,76.4,75.5,30.02,NE,46,0.0,0.0,97,0.00,,---,0.00,VWS V14.01,2014-07-23 08:34:00,
2014-07-23 04:39:00,76.3,75.4,30.02,NE,46,0.0,0.0,97,0.00,,---,0.00,VWS V14.01,2014-07-23 08:39:00,
2014-07-23 04:44:00,76.3,75.4,30.02,NE,46,0.0,0.0,97,0.00,,---,0.00,VWS V14.01,2014-07-23 08:44:00,
2014-07-23 04:49:00,76.3,75.4,30.02,NE,46,0.0,0.0,97,0.00,,---,0.00,VWS V14.01,2014-07-23 08:49:00,
2014-07-23 04:54:00,76.2,75.3,30.02,NE,46,0.0,0.0,97,0.00,,---,0.00,VWS V14.01,2014-07-23 08:54:00,
2014-07-23 04:59:00,76.3,75.7,30.02,NE,46,0.0,0.0,98,0.00,,---,0.00,VWS V14.01,2014-07-23 08:59:00,
2014-07-23 05:04:00,76.4,75.8,30.02,NE,46,0.0,0.0,98,0.00,,---,0.00,VWS V14.01,2014-07-23 09:04:00,
2014-07-23 05:09:00,76.5,75.9,30.02,NE,46,0.0,0.0,98,0.00,,---,0.00,VWS V14.01,2014-07-23 09:09:00,
2014-07-23 05:14:00,76.5,75.9,30.02,NE,46,0.0,0.0,98,0.00,,---,0.00,VWS V14.01,2014-07-23 09:14:00,
2014-07-23 05:19:00,76.5,75.9,30.02,NE,46,0.0,0.0,98,0.00,,---,0.00,VWS V14.01,2014-07-23 09:19:00,
2014-07-23 05:24:00,76.4,75.5,30.02,NE,46,0.0,0.0,97,0.00,,---,0.00,VWS V14.01,2014-07-23 09:24:00,
2014-07-23 05:29:00,76.3,75.4,30.02,NE,46,0.0,0.0,97,0.00,,---,0.00,VWS V14.01,2014-07-23 09:29:00,
2014-07-23 05:34:00,76.2,75.3,30.02,NE,46,0.0,0.0,97,0.00,,---,0.00,VWS V14.01,2014-07-23 09:34:00,
2014-07-23 05:39:00,76.0,75.1,30.03,NE,46,0.0,0.0,97,0.00,,---,0.00,VWS V14.01,2014-07-23 09:39:00,
2014-07-23 05:44:00,75.9,75.0,30.03,NE,46,0.0,0.0,97,0.00,,---,0.00,VWS V14.01,2014-07-23 09:44:00,
2014-07-23 05:49:00,75.9,75.3,30.03,NE,46,0.0,0.0,98,0.00,,---,0.00,VWS V14.01,2014-07-23 09:49:00,
2014-07-23 05:54:00,76.0,75.4,30.03,NE,46,0.0,0.0,98,0.00,,---,0.00,VWS V14.01,2014-07-23 09:54:00,
2014-07-23 05:59:00,75.9,75.3,30.03,NE,46,0.0,0.0,98,0.00,,---,0.00,VWS V14.01,2014-07-23 09:59:00,
2014-07-23 06:04:00,75.9,75.3,30.03,NE,46,0.0,0.0,98,0.00,,---,0.00,VWS V14.01,2014-07-23 10:04:00,
2014-07-23 06:09:00,76.0,75.4,30.03,NE,46,0.0,0.0,98,0.00,,---,0.00,VWS V14.01,2014-07-23 10:09:00,
2014-07-23 06:14:00,76.1,75.5,30.03,NE,46,0.0,0.0,98,0.00,,---,0.00,VWS V14.01,2014-07-23 10:14:00,
2014-07-23 06:19:00,76.2,75.6,30.03,NE,46,0.0,0.0,98,0.00,,---,0.00,VWS V14.01,2014-07-23 10:19:00,
2014-07-23 06:24:00,76.1,75.5,30.04,NE,46,0.0,0.0,98,0.00,,---,0.00,VWS V14.01,2014-07-23 10:24:00,
2014-07-23 06:29:00,76.1,75.5,30.04,NE,46,0.0,0.0,98,0.00,,---,0.00,VWS V14.01,2014-07-23 10:29:00,
2014-07-23 06:34:00,76.0,75.4,30.04,NE,46,0.0,0.0,98,0.00,,---,0.00,VWS V14.01,2014-07-23 10:34:00,
2014-07-23 06:39:00,75.9,75.3,30.04,NE,46,0.0,0.0,98,0.00,,---,0.00,VWS V14.01,2014-07-23 10:39:00,
2014-07-23 06:40:00,75.9,75.3,30.04,NE,46,0.0,0.0,98,0.00,,---,0.00,VWS V14.01,2014-07-23 10:40:00,
2014-07-23 06:44:00,75.8,75.2,30.04,NE,46,0.0,0.0,98,0.00,,---,0.00,VWS V14.01,2014-07-23 10:44:00,
2014-07-23 06:49:00,75.7,75.1,30.04,NE,46,0.0,0.0,98,0.00,,---,0.00,VWS V14.01,2014-07-23 10:49:00,
2014-07-23 06:54:00,75.7,75.1,30.05,NE,46,0.0,0.0,98,0.00,,---,0.00,VWS V14.01,2014-07-23 10:54:00,
2014-07-23 06:59:00,75.7,75.1,30.05,NE,46,0.0,0.0,98,0.00,,---,0.00,VWS V14.01,2014-07-23 10:59:00,
2014-07-23 07:00:00,75.7,75.1,30.05,NE,46,0.0,0.0,98,0.00,,---,0.00,VWS V14.01,2014-07-23 11:00:00,
2014-07-23 07:04:00,75.8,75.2,30.05,NE,46,0.0,0.0,98,0.00,,---,0.00,VWS V14.01,2014-07-23 11:04:00,
2014-07-23 07:09:00,76.0,75.4,30.05,NE,46,0.0,0.0,98,0.00,,---,0.00,VWS V14.01,2014-07-23 11:09:00,
2014-07-23 07:14:00,76.2,75.9,30.05,NE,46,0.0,0.0,99,0.00,,---,0.00,VWS V14.01,2014-07-23 11:14:00,
2014-07-23 07:19:00,76.4,76.1,30.05,NE,46,0.0,0.0,99,0.00,,---,0.00,VWS V14.01,2014-07-23 11:19:00,
2014-07-23 07:24:00,76.5,76.2,30.05,NE,46,0.0,0.0,99,0.00,,---,0.00,VWS V14.01,2014-07-23 11:24:00,
2014-07-23 07:29:00,76.7,76.4,30.05,NE,46,0.0,0.0,99,0.00,,---,0.00,VWS V14.01,2014-07-23 11:29:00,
2014-07-23 07:34:00,76.9,76.6,30.05,NE,44,0.0,0.0,99,0.00,,---,0.00,VWS V14.01,2014-07-23 11:34:00,
2014-07-23 07:39:00,77.3,77.0,30.05,NE,44,0.0,0.0,99,0.00,,---,0.00,VWS V14.01,2014-07-23 11:39:00,
2014-07-23 07:44:00,77.8,77.5,30.05,NE,44,0.0,0.0,99,0.00,,---,0.00,VWS V14.01,2014-07-23 11:44:00,
2014-07-23 07:49:00,78.4,77.8,30.05,NE,44,0.0,0.0,98,0.00,,---,0.00,VWS V14.01,2014-07-23 11:49:00,
2014-07-23 07:54:00,79.4,78.5,30.06,ENE,68,0.0,0.0,97,0.00,,---,0.00,VWS V14.01,2014-07-23 11:54:00,
2014-07-23 07:59:00,80.2,78.6,30.06,East,79,0.0,0.0,95,0.00,,---,0.00,VWS V14.01,2014-07-23 11:59:00,
2014-07-23 08:04:00,80.9,79.0,30.06,East,79,0.0,0.0,94,0.00,,---,0.00,VWS V14.01,2014-07-23 12:04:00,
2014-07-23 08:09:00,81.7,79.5,30.06,ENE,78,0.0,1.0,93,0.00,,---,0.00,VWS V14.01,2014-07-23 12:09:00,
2014-07-23 08:14:00,81.8,78.9,30.06,East,96,0.0,2.0,91,0.00,,---,0.00,VWS V14.01,2014-07-23 12:14:00,
2014-07-23 08:19:00,82.0,79.1,30.06,ENE,77,0.0,2.0,91,0.00,,---,0.00,VWS V14.01,2014-07-23 12:19:00,
2014-07-23 08:24:00,82.7,79.8,30.06,ENE,74,1.0,1.0,91,0.00,,---,0.00,VWS V14.01,2014-07-23 12:24:00,
2014-07-23 08:29:00,83.2,79.6,30.06,East,85,0.0,0.0,89,0.00,,---,0.00,VWS V14.01,2014-07-23 12:29:00,
2014-07-23 08:34:00,83.6,80.0,30.06,NE,49,0.0,0.0,89,0.00,,---,0.00,VWS V14.01,2014-07-23 12:34:00,
2014-07-23 08:40:00,84.1,80.2,30.06,ENE,65,0.0,0.0,88,0.00,,---,0.00,VWS V14.01,2014-07-23 12:40:00,
2014-07-23 08:45:00,84.7,80.1,30.06,East,96,0.0,0.0,86,0.00,,---,0.00,VWS V14.01,2014-07-23 12:45:00,
2014-07-23 08:50:00,85.3,80.3,30.06,ESE,109,0.0,1.0,85,0.00,,---,0.00,VWS V14.01,2014-07-23 12:50:00,
2014-07-23 08:55:00,85.5,79.4,30.06,ENE,70,0.0,0.0,82,0.00,,---,0.00,VWS V14.01,2014-07-23 12:55:00,
2014-07-23 09:00:00,86.0,79.1,30.06,ENE,60,0.0,1.0,80,0.00,,---,0.00,VWS V14.01,2014-07-23 13:00:00,
2014-07-23 09:05:00,86.3,79.8,30.06,ENE,63,0.0,0.0,81,0.00,,---,0.00,VWS V14.01,2014-07-23 13:05:00,
2014-07-23 09:10:00,86.9,79.6,30.06,SSW,193,0.0,0.0,79,0.00,,---,0.00,VWS V14.01,2014-07-23 13:10:00,
2014-07-23 09:15:00,87.5,80.2,30.06,SSE,165,0.0,0.0,79,0.00,,---,0.00,VWS V14.01,2014-07-23 13:15:00,
2014-07-23 09:20:00,87.4,79.7,30.06,ESE,122,0.0,0.0,78,0.00,,---,0.00,VWS V14.01,2014-07-23 13:20:00,
2014-07-23 09:25:00,87.5,79.4,30.07,East,84,0.0,1.0,77,0.00,,---,0.00,VWS V14.01,2014-07-23 13:25:00,
2014-07-23 09:30:00,87.7,80.0,30.07,East,84,0.0,0.0,78,0.00,,---,0.00,VWS V14.01,2014-07-23 13:30:00,
2014-07-23 09:35:00,87.9,79.8,30.06,East,85,0.0,0.0,77,0.00,,---,0.00,VWS V14.01,2014-07-23 13:35:00,
2014-07-23 09:40:00,88.1,79.6,30.06,SSE,157,0.0,0.0,76,0.00,,---,0.00,VWS V14.01,2014-07-23 13:40:00,
2014-07-23 09:45:00,88.4,78.7,30.07,SSE,147,0.0,0.0,73,0.00,,---,0.00,VWS V14.01,2014-07-23 13:45:00,
2014-07-23 09:50:00,89.0,80.1,30.07,SW,217,0.0,0.0,75,0.00,,---,0.00,VWS V14.01,2014-07-23 13:50:00,
2014-07-23 09:55:00,89.1,78.9,30.07,SSW,203,0.0,0.0,72,0.00,,---,0.00,VWS V14.01,2014-07-23 13:55:00,
2014-07-23 10:00:00,89.0,79.6,30.07,SSW,210,0.0,0.0,74,0.00,,---,0.00,VWS V14.01,2014-07-23 14:00:00,
2014-07-23 10:05:00,88.8,79.9,30.07,SSE,158,0.0,0.0,75,0.00,,---,0.00,VWS V14.01,2014-07-23 14:05:00,
2014-07-23 10:10:00,89.6,79.8,30.07,SSE,149,0.0,0.0,73,0.00,,---,0.00,VWS V14.01,2014-07-23 14:10:00,
2014-07-23 10:16:00,90.6,80.3,30.07,SSE,152,0.0,0.0,72,0.00,,---,0.00,VWS V14.01,2014-07-23 14:16:00,
2014-07-23 10:21:00,90.8,80.9,30.08,SW,214,0.0,0.0,73,0.00,,---,0.00,VWS V14.01,2014-07-23 14:21:00,
2014-07-23 10:26:00,91.0,80.7,30.08,SSW,210,0.0,0.0,72,0.00,,---,0.00,VWS V14.01,2014-07-23 14:26:00,
2014-07-23 10:31:00,90.9,80.6,30.08,SSW,207,0.0,1.0,72,0.00,,---,0.00,VWS V14.01,2014-07-23 14:31:00,
2014-07-23 10:36:00,91.0,79.9,30.08,ESE,118,0.0,1.0,70,0.00,,---,0.00,VWS V14.01,2014-07-23 14:36:00,
2014-07-23 10:41:00,91.3,81.0,30.08,ESE,112,0.0,0.0,72,0.00,,---,0.00,VWS V14.01,2014-07-23 14:41:00,
2014-07-23 10:46:00,91.8,80.2,30.08,ESE,106,0.0,0.0,69,0.00,,---,0.00,VWS V14.01,2014-07-23 14:46:00,
2014-07-23 10:51:00,91.1,79.9,30.07,SE,140,0.0,0.0,70,0.00,,---,0.00,VWS V14.01,2014-07-23 14:51:00,
2014-07-23 10:56:00,90.7,80.0,30.08,SE,140,0.0,0.0,71,0.00,,---,0.00,VWS V14.01,2014-07-23 14:56:00,
2014-07-23 11:01:00,90.5,79.4,30.07,NE,35,0.0,0.0,70,0.00,,---,0.00,VWS V14.01,2014-07-23 15:01:00,
2014-07-23 11:06:00,91.2,80.1,30.07,SE,140,0.0,0.0,70,0.00,,---,0.00,VWS V14.01,2014-07-23 15:06:00,
2014-07-23 11:11:00,91.6,79.1,30.07,ESE,106,0.0,0.0,67,0.00,,---,0.00,VWS V14.01,2014-07-23 15:11:00,
2014-07-23 11:16:00,91.8,80.2,30.07,ESE,105,0.0,0.0,69,0.00,,---,0.00,VWS V14.01,2014-07-23 15:16:00,
2014-07-23 11:21:00,92.0,80.8,30.07,ENE,60,0.0,1.0,70,0.00,,---,0.00,VWS V14.01,2014-07-23 15:21:00,
2014-07-23 11:26:00,91.7,79.6,30.07,SE,134,0.0,3.0,68,0.00,,---,0.00,VWS V14.01,2014-07-23 15:26:00,
2014-07-23 11:31:00,92.2,80.1,30.07,SE,136,0.0,0.0,68,0.00,,---,0.00,VWS V14.01,2014-07-23 15:31:00,
2014-07-23 11:36:00,92.8,79.8,30.07,SE,136,0.0,0.0,66,0.00,,---,0.00,VWS V14.01,2014-07-23 15:36:00,
2014-07-23 11:41:00,93.1,80.1,30.07,SE,131,0.0,0.0,66,0.00,,---,0.00,VWS V14.01,2014-07-23 15:41:00,
2014-07-23 11:47:00,92.1,78.2,30.07,ESE,110,0.0,0.0,64,0.00,,---,0.00,VWS V14.01,2014-07-23 15:47:00,
2014-07-23 11:52:00,91.8,79.3,30.07,SSW,211,0.0,1.0,67,0.00,,---,0.00,VWS V14.01,2014-07-23 15:52:00,
2014-07-23 11:57:00,91.8,79.3,30.07,ESE,110,0.0,1.0,67,0.00,,---,0.00,VWS V14.01,2014-07-23 15:57:00,
2014-07-23 12:02:00,91.9,79.4,30.08,SE,132,0.0,1.0,67,0.00,,---,0.00,VWS V14.01,2014-07-23 16:02:00,
2014-07-23 12:07:00,92.0,79.5,30.07,SSE,154,0.0,1.0,67,0.00,,---,0.00,VWS V14.01,2014-07-23 16:07:00,
2014-07-23 12:12:00,92.2,78.7,30.07,SE,131,1.0,1.0,65,0.00,,---,0.00,VWS V14.01,2014-07-23 16:12:00,
2014-07-23 12:17:00,92.6,79.1,30.07,SE,134,0.0,2.0,65,0.00,,---,0.00,VWS V14.01,2014-07-23 16:17:00,
2014-07-23 12:22:00,93.0,80.0,30.07,SE,127,0.0,1.0,66,0.00,,---,0.00,VWS V14.01,2014-07-23 16:22:00,
2014-07-23 12:27:00,93.7,78.7,30.07,East,82,0.0,0.0,62,0.00,,---,0.00,VWS V14.01,2014-07-23 16:27:00,
2014-07-23 12:32:00,94.3,80.2,30.07,SW,222,0.0,0.0,64,0.00,,---,0.00,VWS V14.01,2014-07-23 16:32:00,
2014-07-23 12:37:00,94.9,79.3,30.07,SSW,210,0.0,0.0,61,0.00,,---,0.00,VWS V14.01,2014-07-23 16:37:00,
2014-07-23 12:42:00,95.2,79.6,30.07,ESE,120,0.0,0.0,61,0.00,,---,0.00,VWS V14.01,2014-07-23 16:42:00,
2014-07-23 12:47:00,94.9,80.3,30.07,WSW,239,0.0,0.0,63,0.00,,---,0.00,VWS V14.01,2014-07-23 16:47:00,
2014-07-23 12:52:00,94.8,79.3,30.07,NE,54,0.0,0.0,61,0.00,,---,0.00,VWS V14.01,2014-07-23 16:52:00,
2014-07-23 12:57:00,94.6,80.5,30.07,SE,146,0.0,0.0,64,0.00,,---,0.00,VWS V14.01,2014-07-23 16:57:00,
2014-07-23 13:02:00,95.0,80.9,30.07,North,354,0.0,0.0,64,0.00,,---,0.00,VWS V14.01,2014-07-23 17:02:00,
2014-07-23 13:07:00,95.4,82.7,30.07,ENE,69,0.0,0.0,67,0.00,,---,0.00,VWS V14.01,2014-07-23 17:07:00,
2014-07-23 13:12:00,95.6,80.0,30.07,NE,34,0.0,0.0,61,0.00,,---,0.00,VWS V14.01,2014-07-23 17:12:00,
2014-07-23 13:17:00,95.1,80.5,30.07,ESE,114,0.0,0.0,63,0.00,,---,0.00,VWS V14.01,2014-07-23 17:17:00,
2014-07-23 13:22:00,95.1,80.0,30.07,ESE,115,0.0,1.0,62,0.00,,---,0.00,VWS V14.01,2014-07-23 17:22:00,
2014-07-23 13:27:00,95.0,79.9,30.07,North,352,0.0,0.0,62,0.00,,---,0.00,VWS V14.01,2014-07-23 17:27:00,
2014-07-23 13:32:00,94.9,79.3,30.07,WSW,239,0.0,0.0,61,0.00,,---,0.00,VWS V14.01,2014-07-23 17:32:00,
2014-07-23 13:38:00,94.7,79.7,30.07,ESE,119,0.0,0.0,62,0.00,,---,0.00,VWS V14.01,2014-07-23 17:38:00,
2014-07-23 13:43:00,94.5,80.9,30.07,NE,54,0.0,1.0,65,0.00,,---,0.00,VWS V14.01,2014-07-23 17:43:00,
2014-07-23 13:48:00,94.6,79.1,30.07,ESE,109,0.0,1.0,61,0.00,,---,0.00,VWS V14.01,2014-07-23 17:48:00,
2014-07-23 13:53:00,94.6,81.0,30.07,ESE,123,0.0,0.0,65,0.00,,---,0.00,VWS V14.01,2014-07-23 17:53:00,
2014-07-23 13:58:00,94.9,80.8,30.07,SE,124,0.0,0.0,64,0.00,,---,0.00,VWS V14.01,2014-07-23 17:58:00,
2014-07-23 14:03:00,95.0,78.9,30.07,NNE,29,0.0,3.0,60,0.00,,---,0.00,VWS V14.01,2014-07-23 18:03:00,
2014-07-23 14:08:00,95.3,80.2,30.06,ESE,115,0.0,1.0,62,0.00,,---,0.00,VWS V14.01,2014-07-23 18:08:00,
2014-07-23 14:13:00,95.6,81.0,30.06,SE,139,0.0,0.0,63,0.00,,---,0.00,VWS V14.01,2014-07-23 18:13:00,
2014-07-23 14:18:00,95.9,79.3,30.06,NE,39,0.0,0.0,59,0.00,,---,0.00,VWS V14.01,2014-07-23 18:18:00,
2014-07-23 14:23:00,95.7,78.6,30.06,SE,127,0.0,1.0,58,0.00,,---,0.00,VWS V14.01,2014-07-23 18:23:00,
2014-07-23 14:28:00,95.8,80.2,30.06,SE,128,0.0,0.0,61,0.00,,---,0.00,VWS V14.01,2014-07-23 18:28:00,
2014-07-23 14:33:00,95.4,77.8,30.06,ESE,105,0.0,1.0,57,0.00,,---,0.00,VWS V14.01,2014-07-23 18:33:00,
2014-07-23 14:38:00,95.0,79.4,30.05,SE,145,0.0,0.0,61,0.00,,---,0.00,VWS V14.01,2014-07-23 18:38:00,
2014-07-23 14:43:00,94.9,79.3,30.05,SE,139,0.0,0.0,61,0.00,,---,0.00,VWS V14.01,2014-07-23 18:43:00,
2014-07-23 14:48:00,95.6,79.5,30.05,ENE,65,1.0,1.0,60,0.00,,---,0.00,VWS V14.01,2014-07-23 18:48:00,
2014-07-23 14:53:00,96.0,79.4,30.05,SSE,149,0.0,1.0,59,0.00,,---,0.00,VWS V14.01,2014-07-23 18:53:00,
2014-07-23 14:59:00,95.5,76.8,30.05,SE,124,0.0,0.0,55,0.00,,---,0.00,VWS V14.01,2014-07-23 18:59:00,
2014-07-23 15:04:00,95.7,79.1,30.05,SSE,158,0.0,0.0,59,0.00,,---,0.00,VWS V14.01,2014-07-23 19:04:00,
2014-07-23 15:09:00,96.0,79.9,30.05,SW,222,0.0,1.0,60,0.00,,---,0.00,VWS V14.01,2014-07-23 19:09:00,
2014-07-23 15:14:00,95.6,79.0,30.04,SE,127,0.0,0.0,59,0.00,,---,0.00,VWS V14.01,2014-07-23 19:14:00,
2014-07-23 15:19:00,94.9,78.3,30.05,SW,219,0.0,0.0,59,0.00,,---,0.00,VWS V14.01,2014-07-23 19:19:00,
2014-07-23 15:23:00,94.9,78.3,30.04,ESE,103,0.0,0.0,59,0.00,,---,0.00,VWS V14.01,2014-07-23 19:23:00,
2014-07-23 15:28:00,94.8,78.8,30.04,ESE,105,0.0,1.0,60,0.00,,---,0.00,VWS V14.01,2014-07-23 19:28:00,
2014-07-23 15:34:00,95.1,79.0,30.04,East,89,0.0,0.0,60,0.00,,---,0.00,VWS V14.01,2014-07-23 19:34:00,
2014-07-23 15:39:00,95.3,77.7,30.04,SSW,192,0.0,2.0,57,0.00,,---,0.00,VWS V14.01,2014-07-23 19:39:00,
2014-07-23 15:44:00,95.2,77.6,30.04,ESE,115,0.0,0.0,57,0.00,,---,0.00,VWS V14.01,2014-07-23 19:44:00,
2014-07-23 15:49:00,95.2,78.6,30.04,SE,136,0.0,0.0,59,0.00,,---,0.00,VWS V14.01,2014-07-23 19:49:00,
2014-07-23 15:54:00,95.5,77.8,30.03,SW,215,0.0,0.0,57,0.00,,---,0.00,VWS V14.01,2014-07-23 19:54:00,
2014-07-23 15:58:00,95.8,78.7,30.03,SE,128,0.0,0.0,58,0.00,,---,0.00,VWS V14.01,2014-07-23 19:58:00,
2014-07-23 16:03:00,95.3,76.6,30.03,SSE,166,0.0,0.0,55,0.00,,---,0.00,VWS V14.01,2014-07-23 20:03:00,
2014-07-23 16:08:00,95.0,77.9,30.03,SSE,162,0.0,1.0,58,0.00,,---,0.00,VWS V14.01,2014-07-23 20:08:00,
2014-07-23 16:13:00,94.8,78.8,30.03,SE,143,0.0,1.0,60,0.00,,---,0.00,VWS V14.01,2014-07-23 20:13:00,
2014-07-23 16:18:00,95.1,76.9,30.03,SE,127,0.0,1.0,56,0.00,,---,0.00,VWS V14.01,2014-07-23 20:18:00,
2014-07-23 16:23:00,94.9,77.3,30.03,ESE,118,0.0,0.0,57,0.00,,---,0.00,VWS V14.01,2014-07-23 20:23:00,
2014-07-23 16:28:00,94.8,77.2,30.02,NNW,335,0.0,2.0,57,0.00,,---,0.00,VWS V14.01,2014-07-23 20:28:00,
2014-07-23 16:33:00,95.1,78.0,30.02,SW,225,0.0,0.0,58,0.00,,---,0.00,VWS V14.01,2014-07-23 20:33:00,
2014-07-23 16:38:00,95.6,76.9,30.02,NW,324,0.0,0.0,55,0.00,,---,0.00,VWS V14.01,2014-07-23 20:38:00,
2014-07-23 16:43:00,95.5,76.2,30.02,SE,136,0.0,0.0,54,0.00,,---,0.00,VWS V14.01,2014-07-23 20:43:00,
2014-07-23 16:48:00,95.3,78.2,30.02,SE,131,0.0,0.0,58,0.00,,---,0.00,VWS V14.01,2014-07-23 20:48:00,
2014-07-23 16:53:00,95.3,77.7,30.02,ESE,117,2.0,2.0,57,0.00,,---,0.00,VWS V14.01,2014-07-23 20:53:00,
2014-07-23 16:58:00,95.0,76.8,30.02,SSE,149,0.0,0.0,56,0.00,,---,0.00,VWS V14.01,2014-07-23 20:58:00,
2014-07-23 17:03:00,94.6,77.0,30.02,South,186,0.0,0.0,57,0.00,,---,0.00,VWS V14.01,2014-07-23 21:03:00,
2014-07-23 17:08:00,94.0,77.0,30.02,SSE,163,0.0,1.0,58,0.00,,---,0.00,VWS V14.01,2014-07-23 21:08:00,
2014-07-23 17:13:00,94.0,76.5,30.02,SW,214,0.0,1.0,57,0.00,,---,0.00,VWS V14.01,2014-07-23 21:13:00,
2014-07-23 17:19:00,93.8,76.3,30.02,SSW,207,0.0,0.0,57,0.00,,---,0.00,VWS V14.01,2014-07-23 21:19:00,
2014-07-23 17:24:00,93.7,76.7,30.02,SW,225,0.0,1.0,58,0.00,,---,0.00,VWS V14.01,2014-07-23 21:24:00,
2014-07-23 17:29:00,93.7,77.2,30.02,NE,35,0.0,0.0,59,0.00,,---,0.00,VWS V14.01,2014-07-23 21:29:00,
2014-07-23 17:34:00,93.5,76.0,30.01,SE,124,0.0,0.0,57,0.00,,---,0.00,VWS V14.01,2014-07-23 21:34:00,
2014-07-23 17:39:00,93.4,76.9,30.01,ESE,108,0.0,0.0,59,0.00,,---,0.00,VWS V14.01,2014-07-23 21:39:00,
2014-07-23 17:44:00,93.2,76.2,30.01,North,352,0.0,0.0,58,0.00,,---,0.00,VWS V14.01,2014-07-23 21:44:00,
2014-07-23 17:49:00,93.4,76.9,30.01,SSE,155,0.0,0.0,59,0.00,,---,0.00,VWS V14.01,2014-07-23 21:49:00,
2014-07-23 17:54:00,93.5,77.0,30.00,ESE,113,0.0,0.0,59,0.00,,---,0.00,VWS V14.01,2014-07-23 21:54:00,
2014-07-23 17:59:00,93.4,76.4,30.00,ESE,105,0.0,0.0,58,0.00,,---,0.00,VWS V14.01,2014-07-23 21:59:00,
2014-07-23 18:04:00,92.8,76.9,30.00,SE,126,0.0,0.0,60,0.00,,---,0.00,VWS V14.01,2014-07-23 22:04:00,
2014-07-23 18:09:00,92.1,76.7,30.00,ESE,118,0.0,0.0,61,0.00,,---,0.00,VWS V14.01,2014-07-23 22:09:00,
2014-07-23 18:14:00,91.1,76.3,30.00,SE,136,0.0,0.0,62,0.00,,---,0.00,VWS V14.01,2014-07-23 22:14:00,
2014-07-23 18:19:00,90.2,76.4,30.00,SE,127,0.0,1.0,64,0.00,,---,0.00,VWS V14.01,2014-07-23 22:19:00,
2014-07-23 18:24:00,89.5,76.7,30.00,ESE,117,0.0,0.0,66,0.00,,---,0.00,VWS V14.01,2014-07-23 22:24:00,
2014-07-23 18:29:00,89.1,77.2,30.00,ESE,114,0.0,0.0,68,0.00,,---,0.00,VWS V14.01,2014-07-23 22:29:00,
2014-07-23 18:34:00,88.8,76.0,30.00,ESE,122,0.0,1.0,66,0.00,,---,0.00,VWS V14.01,2014-07-23 22:34:00,
2014-07-23 18:39:00,88.6,76.7,30.00,North,1,0.0,0.0,68,0.00,,---,0.00,VWS V14.01,2014-07-23 22:39:00,
2014-07-23 18:44:00,88.6,77.1,30.00,East,101,0.0,0.0,69,0.00,,---,0.00,VWS V14.01,2014-07-23 22:44:00,
2014-07-23 18:49:00,88.5,77.0,30.00,SE,145,0.0,0.0,69,0.00,,---,0.00,VWS V14.01,2014-07-23 22:49:00,
2014-07-23 18:54:00,88.2,76.8,30.00,SE,146,0.0,0.0,69,0.00,,---,0.00,VWS V14.01,2014-07-23 22:54:00,
2014-07-23 18:59:00,88.0,76.6,30.00,SE,145,0.0,0.0,69,0.00,,---,0.00,VWS V14.01,2014-07-23 22:59:00,
2014-07-23 19:04:00,87.8,77.2,30.00,SW,226,0.0,0.0,71,0.00,,---,0.00,VWS V14.01,2014-07-23 23:04:00,
2014-07-23 19:09:00,87.5,76.9,29.99,West,274,0.0,0.0,71,0.00,,---,0.00,VWS V14.01,2014-07-23 23:09:00,
2014-07-23 19:14:00,87.2,76.7,29.99,ESE,114,0.0,0.0,71,0.00,,---,0.00,VWS V14.01,2014-07-23 23:14:00,
2014-07-23 19:19:00,86.9,76.8,29.99,SE,124,0.0,0.0,72,0.00,,---,0.00,VWS V14.01,2014-07-23 23:19:00,
2014-07-23 19:24:00,86.5,76.4,29.99,ESE,110,0.0,0.0,72,0.00,,---,0.00,VWS V14.01,2014-07-23 23:24:00,
2014-07-23 19:29:00,86.3,76.6,29.99,NNW,347,0.0,0.0,73,0.00,,---,0.00,VWS V14.01,2014-07-23 23:29:00,
2014-07-23 19:34:00,86.2,76.5,29.99,North,352,0.0,0.0,73,0.00,,---,0.00,VWS V14.01,2014-07-23 23:34:00,
2014-07-23 19:39:00,86.1,76.4,29.99,NE,45,0.0,0.0,73,0.00,,---,0.00,VWS V14.01,2014-07-23 23:39:00,
2014-07-23 19:44:00,85.8,76.2,30.00,NE,45,0.0,0.0,73,0.00,,---,0.00,VWS V14.01,2014-07-23 23:44:00,
2014-07-23 19:49:00,85.7,76.5,30.00,NE,45,0.0,0.0,74,0.00,,---,0.00,VWS V14.01,2014-07-23 23:49:00,
2014-07-23 19:54:00,85.5,76.3,30.00,NE,50,0.0,0.0,74,0.00,,---,0.00,VWS V14.01,2014-07-23 23:54:00,